Simultaneous Nadir Overpasses (SNOs) Predictions

Prediction of SNOs between GOES-17 and LANDSAT-8 Satellite Orbit:

Table of predicted SNOs for the next 14.0 days since TLE Epoch: 3/12/2022
Index Date Time (GOES-17) GOES-17 Lat,Lon LANDSAT-8 Lat,Lon Distance(km) Time Diff (sec)
1 03/13/2022 19:16:20 0.04,-137.20 -0.30,-135.73 168.28 80
2 03/14/2022 07:37:43 -0.04,-137.20 -0.81,-140.92 422.32 80
3 03/16/2022 07:25:31 -0.04,-137.19 -0.21,-137.96 87.12 80
4 03/18/2022 07:10:39 -0.03,-137.18 0.46,-135.01 247.77 80
5 03/18/2022 19:31:53 0.03,-137.18 0.65,-140.16 339.07 80
6 03/20/2022 19:19:40 0.03,-137.16 0.04,-137.20 4.95 80
7 03/22/2022 19:10:07 0.03,-137.13 -0.59,-134.24 328.29 80
8 03/23/2022 07:31:31 -0.03,-137.12 -0.51,-139.43 262.90 80
9 03/25/2022 07:16:38 -0.03,-137.08 0.13,-136.47 69.04 80
